Hourly Data

Hourly Data Report for March 06, 2012

All times are specified in Local Standard Time (LST). Add 1 hour to adjust for Daylight Saving Time where and when it is observed.

Metadata including Station Name, Province, Latitude, Longitude, Elevation, Climate ID, WMO ID, TC ID
CHARLOTTETOWN A
PRINCE EDWARD ISLAND
Latitude: 46°17'19.020" N Longitude: 63°07'43.070" W Elevation: 48.80 m
Climate ID: 8300300 WMO ID: 71706 TC ID: YYG
Hourly Data Report for March 6, 2012
Temp Definition
°C

Dew Point Temp Definition
°C

Rel Hum Definition
%

Wind Dir Definition
10's deg
Wind Spd Definition
km/h

Visibility Definition
km

Stn Press Definition
kPa

Hmdx Definition

Wind Chill Definition

Weather Definition

TIME
00:00 -4.9 -7.9 79 3 9 16.1 101.56 -9 Snow Showers
01:00 -4.7 -7.6 80 2 11 9.7 101.62 -9 Snow Showers
02:00 -5.1 -7.6 83 2 13 16.1 101.67 -10 Snow Showers
03:00 -5.4 -8.0 82 2 9 16.1 101.77 -9 Snow Showers
04:00 -5.3 -8.0 81 2 11 16.1 101.77 -10 Snow Showers
05:00 -5.8 -8.8 79 4 13 24.1 101.85 -11 Snow Showers
06:00 -5.5 -8.7 78 3 9 24.1 101.91 -10 Cloudy
07:00 -5.7 -9.4 75 3 11 24.1 102.01 -10 Mostly Cloudy
08:00 -5.1 -10.1 68 4 17 24.1 102.08 -11 Mostly Cloudy
09:00 -4.8 -9.8 68 4 19 24.1 102.11 -11 Snow Showers
10:00 -4.7 -9.5 69 3 24 24.1 102.20 -12 Snow Showers
11:00 -4.5 -9.5 68 1 20 16.1 102.19 -11 Snow Showers
12:00 -4.3 -9.2 69 36 22 24.1 102.18 -11 Snow Showers
13:00 -4.3 -9.6 66 36 28 24.1 102.09 -12 Snow Showers
14:00 -4.3 -9.4 68 2 22 24.1 102.08 -11 Snow Showers
15:00 -4.1 -9.1 68 34 22 24.1 102.13 -11 Snow Showers
16:00 -4.3 -8.8 71 35 26 24.1 102.15 -12 Snow Showers
17:00 -4.6 -9.8 67 34 26 24.1 102.17 -12 Snow Showers
18:00 -4.9 -9.1 72 35 20 24.1 102.20 -11 Snow Showers
19:00 -5.1 -8.9 75 34 22 24.1 102.26 -12 Snow Showers
20:00 -5.3 -9.0 75 35 24 24.1 102.33 -13 Snow Showers
21:00 -5.6 -10.5 68 36 20 24.1 102.42 -12 Mostly Cloudy
22:00 -6.0 -10.9 68 34 19 24.1 102.48 -13 Snow Showers
23:00 -6.1 -10.9 69 34 19 24.1 102.49 -13 Snow Showers

Notes on Data Quality.

Legend
  • M = Missing
  • E = Estimated
  • NA = Not Available
  • ‡ = Partner data that is not subject to review by the National Climate Archives